Tian Lian 1-02

operational
NORAD ID: 37737 Int'l Des: 2011-032 Owner: CAST Country: CN
HEOCIRCULAR

关于 Tian Lian 1-02

正在加载描述...

实时位置

正在加载3D地球...

即将过境

高度历史

Altitude vs Time

uPlot chart will show altitude changes over time

两行轨道根数

1 37737U 11032A 26062.55864723 .00000032 00000-0 00000-0 0 9995
2 37737 5.2864 68.3735 0008527 254.5196 259.1520 0.98995979 43051
Epoch: Mar 3, 2026 • Age: 25 hours

当前状态

高度 36135.0 km
速度 3.06 km/s
星下点 -3.14°S, 142.36°W
发射日期 Jul 11, 2011
运行时间 14.6 years
类型 other

技术详情

分类 Payload
质量 2500.00 kg
干质量 1060.00 kg
总质量 2500.00 kg
长度 6.00 m
直径 1.70 m
跨度 18.10 m
形状 Box + 2 Pan + Dish
制造商 CAST
平台类型 DFH-3
阶段状态 In Orbit
所有者/国家 CAST/CN

大型星座

Loading constellations...